I4GOS-3 Weather Reports


Display with metric or nautical units.
time (UTC)temp
F
wind
direction
speed
MPH
gust
MPH
rain 1hr
in
rain 24hr
in
rain mn
in
humidity
%
barometer
mb
20260510202503 63 337 0.0 0.0 0.00 0.04 0.00 67 1011.5
20260510202002 63 337 0.0 0.0 0.00 0.04 0.00 68 1011.5
20260510201500 63 337 0.0 0.0 0.00 0.04 0.00 68 1011.4
20260510200959 63 337 0.0 0.0 0.00 0.04 0.00 68 1011.5
20260510200459 63 337 0.0 0.0 0.00 0.04 0.00 68 1011.5
20260510195959 63 336 0.0 0.0 0.00 0.04 0.00 69 1011.6
20260510195459 63 337 0.0 0.0 0.00 0.04 0.00 69 1011.7
20260510194958 64 337 0.0 0.0 0.00 0.04 0.00 69 1011.7
20260510194455 64 337 0.0 0.0 0.00 0.04 0.00 69 1011.6
20260510193955 64 337 0.0 0.0 0.00 0.04 0.00 69 1011.7
20260510193454 64 335 0.0 0.0 0.00 0.04 0.00 70 1011.7
20260510192954 64 359 0.0 0.0 0.00 0.04 0.00 70 1011.7
20260510192454 64 337 0.0 0.0 0.00 0.04 0.00 70 1011.7
20260510191953 64 337 0.0 0.0 0.00 0.04 0.00 70 1011.6
20260510191453 64 337 0.0 0.0 0.00 0.04 0.00 70 1011.5
20260510190953 64 337 0.0 0.0 0.00 0.04 0.00 70 1011.5
20260510190453 64 337 0.0 0.0 0.00 0.04 0.00 70 1011.4
20260510185452 64 337 0.0 0.0 0.00 0.04 0.00 71 1011.4
20260510184952 64 337 0.0 0.0 0.00 0.04 0.00 71 1011.4
20260510184452 64 336 0.0 0.0 0.00 0.04 0.00 71 1011.4
20260510183952 64 336 0.0 0.0 0.00 0.04 0.00 71 1011.3
20260510183451 65 337 0.0 0.0 0.00 0.04 0.00 71 1011.3
20260510182951 65 336 0.0 0.0 0.00 0.04 0.00 71 1011.3
20260510182451 65 336 0.0 0.0 0.00 0.04 0.00 71 1011.3
20260510181954 65 337 0.0 0.0 0.00 0.04 0.00 71 1011.2
20260510181450 65 336 0.0 0.0 0.00 0.04 0.00 70 1011.3
20260510180949 65 336 0.0 0.0 0.00 0.04 0.00 70 1011.3
20260510180449 65 336 0.0 0.0 0.00 0.04 0.00 70 1011.3
20260510175948 65 336 0.0 0.0 0.00 0.04 0.00 70 1011.3
20260510175448 65 336 0.0 0.0 0.00 0.04 0.00 70 1011.2
20260510174948 65 336 0.0 0.0 0.00 0.04 0.00 70 1011.2
20260510174448 65 336 0.0 0.0 0.00 0.04 0.00 70 1011.2
20260510173947 65 336 0.0 0.0 0.00 0.04 0.00 69 1011.3
20260510173447 65 336 0.0 0.0 0.00 0.04 0.00 69 1011.4
20260510172947 65 336 0.0 0.0 0.00 0.04 0.00 68 1011.3
20260510172447 65 337 0.0 0.0 0.00 0.04 0.00 68 1011.4
20260510171947 65 336 0.0 0.0 0.00 0.04 0.00 67 1011.5
20260510171446 65 336 0.0 0.0 0.00 0.04 0.00 67 1011.5
20260510170946 65 336 0.0 0.0 0.00 0.04 0.00 67 1011.5
20260510170446 65 336 0.0 0.0 0.00 0.04 0.00 67 1011.5
20260510165946 65 336 0.0 0.0 0.00 0.04 0.00 66 1011.5
20260510165445 65 336 0.0 0.0 0.00 0.04 0.00 66 1011.5
20260510164945 65 336 0.0 0.0 0.00 0.04 0.00 65 1011.5
20260510164445 65 336 0.0 0.0 0.00 0.04 0.00 66 1011.5
20260510163945 65 334 0.0 0.0 0.00 0.04 0.00 65 1011.5
20260510163444 65 334 0.0 0.0 0.00 0.04 0.00 65 1011.6
20260510162944 65 332 0.0 0.0 0.00 0.04 0.00 64 1011.6
20260510162444 65 331 0.0 0.0 0.00 0.04 0.00 64 1011.6
20260510161944 65 327 0.0 0.0 0.00 0.04 0.00 64 1011.6
20260510161444 66 325 0.0 0.0 0.00 0.04 0.00 63 1011.6
20260510161016 66 324 0.0 0.0 0.00 0.04 0.00 62 1011.7
20260510160943 66 324 0.0 0.0 0.00 0.04 0.00 62 1011.7
20260510160443 66 324 0.0 0.0 0.00 0.04 0.00 62 1011.7
20260510155943 66 324 0.0 0.0 0.00 0.03 0.00 63 1011.7
20260510155443 65 324 0.0 0.0 0.00 0.03 0.00 63 1011.7
20260510154942 66 320 0.0 0.0 0.00 0.03 0.00 62 1011.7
20260510154442 65 310 0.0 0.0 0.00 0.03 0.00 62 1011.8
20260510153942 65 310 0.0 0.0 0.00 0.03 0.00 63 1011.8
20260510153442 65 266 0.0 0.0 0.00 0.02 0.00 63 1012.0
20260510152941 65 265 0.0 0.0 0.00 0.02 0.00 64 1012.0
20260510152441 65 266 0.0 0.0 0.00 0.02 0.00 64 1012.0
20260510151941 66 283 0.0 0.0 0.00 0.02 0.00 63 1012.0
20260510151441 66 260 0.0 0.0 0.00 0.02 0.00 62 1012.0
20260510150941 66 289 0.0 0.0 0.00 0.01 0.00 63 1012.0
20260510150440 65 291 0.0 0.0 0.00 0.01 0.00 64 1012.1
20260510145940 65 291 0.0 0.0 0.00 0.01 0.00 64 1012.0
20260510145440 65 291 0.0 0.0 0.00 0.01 0.00 65 1012.0
20260510144940 65 291 0.0 0.0 0.00 0.00 0.00 67 1012.0
20260510144439 65 292 0.0 0.0 0.04 0.00 0.00 67 1012.0
20260510143939 65 291 0.0 0.0 0.04 0.00 0.00 67 1012.0
20260510143439 65 291 0.0 0.0 0.04 0.09 0.00 68 1012.0
20260510142939 65 291 0.0 0.0 0.00 0.08 0.00 68 1012.1
20260510142438 65 291 0.0 0.0 0.00 0.08 0.00 69 1012.3
20260510141938 65 291 0.0 0.0 0.00 0.08 0.00 69 1012.3
20260510141438 65 292 0.0 0.0 0.00 0.07 0.00 70 1012.3
20260510140437 65 292 0.0 0.0 0.04 0.07 0.00 72 1012.3
20260510135936 65 292 0.0 0.0 0.04 0.07 0.00 72 1012.3
20260510135436 65 292 0.0 0.0 0.00 0.06 0.00 73 1012.2
20260510134936 65 292 0.0 0.0 0.00 0.06 0.00 73 1012.4
20260510134436 65 301 0.0 0.0 0.00 0.06 0.00 74 1012.4
20260510133935 65 301 0.0 0.0 0.04 0.05 0.00 74 1012.2
20260510133435 65 297 0.0 0.0 0.04 0.05 0.00 75 1012.3
20260510132935 65 291 0.0 0.0 0.04 0.05 0.00 75 1012.5
20260510132435 66 280 0.0 0.0 0.04 0.04 0.00 75 1012.6
20260510131934 66 283 0.0 0.0 0.04 0.04 0.00 75 1012.7
20260510131434 66 283 0.0 0.0 0.04 0.04 0.00 75 1012.8
20260510130934 66 152 0.0 0.0 0.04 0.04 0.00 76 1012.8
20260510130434 66 121 0.0 0.0 0.04 0.03 0.00 75 1012.9
20260510125934 66 79 0.0 0.0 0.04 0.03 0.00 75 1012.8
20260510125433 66 79 0.0 0.0 0.04 0.02 0.00 75 1012.8
20260510124933 67 77 0.0 0.0 0.06 0.02 0.00 75 1012.7
20260510124433 67 64 0.0 0.0 0.06 0.02 0.00 75 1012.7
20260510123933 67 95 0.0 0.0 0.00 0.01 0.00 74 1012.6
20260510123432 67 80 1.0 0.0 0.00 0.01 0.00 74 1012.6
20260510122932 68 91 0.0 0.0 0.00 0.00 0.00 74 1012.6
20260510122432 68 91 3.0 0.0 0.00 0.00 0.00 73 1012.6
20260510121932 68 73 4.0 0.0 0.00 0.00 0.00 73 1012.6
20260510121432 68 88 5.0 0.0 0.00 0.00 0.00 72 1012.7
20260510120931 68 54 0.0 0.0 0.00 0.00 0.00 72 1012.7
20260510120431 68 83 2.0 0.0 0.00 0.00 0.00 71 1012.7
20260510115931 68 46 3.0 0.0 0.00 0.00 0.00 70 1012.7
20260510115431 68 83 2.0 0.0 0.00 0.00 0.00 70 1012.7
20260510114930 68 64 4.0 0.0 0.00 0.00 0.00 71 1012.7
20260510114430 68 71 3.0 0.0 0.00 0.00 0.00 71 1012.7
20260510113930 68 61 5.0 0.0 0.00 0.00 0.00 71 1012.6
20260510113430 68 56 4.0 0.0 0.00 0.00 0.00 71 1012.7
20260510112928 69 67 1.0 0.0 0.00 0.00 0.00 70 1012.7
20260510112428 69 79 3.0 0.0 0.00 0.00 0.00 70 1012.7
20260510111928 69 77 4.0 0.0 0.00 0.00 0.00 70 1012.7
20260510111428 69 50 4.0 0.0 0.00 0.00 0.00 70 1012.8
20260510110927 69 62 1.0 0.0 0.00 0.00 0.00 69 1012.7
20260510110427 70 43 4.0 0.0 0.00 0.00 0.00 69 1012.7
20260510105927 70 80 3.0 0.0 0.00 0.00 0.00 69 1012.6
20260510105427 69 35 1.0 0.0 0.00 0.00 0.00 69 1012.6
20260510104927 70 16 0.0 0.0 0.00 0.00 0.00 68 1012.7
20260510104426 70 37 3.0 0.0 0.00 0.00 0.00 69 1012.7
20260510103926 71 51 0.0 0.0 0.00 0.00 0.00 69 1012.8
20260510103426 71 4 0.0 0.0 0.00 0.00 0.00 69 1012.8
20260510102926 70 4 0.0 0.0 0.00 0.00 0.00 69 1012.8
20260510102425 70 4 0.0 0.0 0.00 0.00 0.00 70 1012.9
20260510101925 70 4 0.0 0.0 0.00 0.00 0.00 69 1012.9
20260510101425 70 33 0.0 0.0 0.00 0.00 0.00 70 1012.9
20260510100925 70 359 0.0 0.0 0.00 0.00 0.00 70 1013.0
20260510100424 69 24 0.0 0.0 0.00 0.00 0.00 70 1013.1
20260510095924 69 10 0.0 0.0 0.00 0.00 0.00 70 1013.1
20260510095424 70 4 0.0 0.0 0.00 0.00 0.00 71 1013.2
20260510094924 70 10 0.0 0.0 0.00 0.00 0.00 71 1013.2
20260510094423 70 36 2.0 0.0 0.00 0.00 0.00 70 1013.1
20260510093923 70 22 3.0 0.0 0.00 0.00 0.00 71 1013.0
20260510093422 70 336 1.0 0.0 0.00 0.00 0.00 70 1013.1
20260510092922 70 335 4.0 0.0 0.00 0.00 0.00 70 1013.1
20260510092421 70 344 2.0 0.0 0.00 0.00 0.00 70 1013.0
20260510091921 70 4 2.0 0.0 0.00 0.00 0.00 69 1013.0
20260510091421 71 18 6.0 0.0 0.00 0.00 0.00 68 1013.0
20260510090921 71 343 0.0 0.0 0.00 0.00 0.00 69 1013.0
20260510090420 71 322 0.0 0.0 0.00 0.00 0.00 69 1013.0
20260510085920 70 231 0.0 0.0 0.00 0.00 0.00 68 1013.0
20260510085420 70 231 0.0 0.0 0.00 0.00 0.00 70 1012.9
20260510084920 70 231 0.0 0.0 0.00 0.00 0.00 70 1012.9
20260510084420 69 171 0.0 0.0 0.00 0.00 0.00 71 1012.8
20260510083920 69 171 0.0 0.0 0.00 0.00 0.00 72 1012.8
20260510083419 68 171 0.0 0.0 0.00 0.00 0.00 73 1012.9
20260510082919 68 172 0.0 0.0 0.00 0.00 0.00 73 1012.9
20260510082419 68 172 0.0 0.0 0.00 0.00 0.00 74 1012.8
20260510081918 68 172 0.0 0.0 0.00 0.00 0.00 74 1012.9
20260510081418 67 164 0.0 0.0 0.00 0.00 0.00 75 1013.0
20260510080918 67 163 0.0 0.0 0.00 0.00 0.00 75 1013.0
20260510080418 67 164 0.0 0.0 0.00 0.00 0.00 75 1013.1
20260510075917 66 164 0.0 0.0 0.00 0.00 0.00 75 1013.1
20260510075417 66 164 0.0 0.0 0.00 0.00 0.00 75 1013.1
20260510074917 66 164 0.0 0.0 0.00 0.00 0.00 75 1013.0
20260510074417 66 164 0.0 0.0 0.00 0.00 0.00 75 1013.1
20260510073916 65 164 0.0 0.0 0.00 0.00 0.00 75 1013.0
20260510073416 65 164 0.0 0.0 0.00 0.00 0.00 74 1013.0
20260510072916 65 164 0.0 0.0 0.00 0.00 0.00 74 1013.0
20260510072416 64 164 0.0 0.0 0.00 0.00 0.00 74 1013.1
20260510071916 64 164 0.0 0.0 0.00 0.00 0.00 74 1013.1
20260510071415 64 164 0.0 0.0 0.00 0.00 0.00 75 1013.1
20260510070915 64 164 0.0 0.0 0.00 0.00 0.00 75 1013.1
20260510070415 64 164 0.0 0.0 0.00 0.00 0.00 75 1013.1
20260510065915 64 164 0.0 0.0 0.00 0.00 0.00 75 1013.1
20260510065415 63 164 0.0 0.0 0.00 0.00 0.00 75 1013.2
20260510064914 63 164 0.0 0.0 0.00 0.00 0.00 75 1013.2
20260510064414 63 164 0.0 0.0 0.00 0.00 0.00 75 1013.2
20260510063914 63 161 0.0 0.0 0.00 0.00 0.00 75 1013.2
20260510063414 63 135 0.0 0.0 0.00 0.00 0.00 75 1013.2
20260510062913 63 135 0.0 0.0 0.00 0.00 0.00 75 1013.2
20260510062413 63 135 0.0 0.0 0.00 0.00 0.00 76 1013.3
20260510061913 63 135 0.0 0.0 0.00 0.00 0.00 76 1013.2
20260510061413 63 127 0.0 0.0 0.00 0.00 0.00 76 1013.3
20260510060912 63 129 0.0 0.0 0.00 0.00 0.00 76 1013.1
20260510060412 63 107 1.0 0.0 0.00 0.00 0.00 76 1013.1
20260510055912 63 105 2.0 0.0 0.00 0.00 0.00 76 1013.1
20260510055412 63 99 2.0 0.0 0.00 0.00 0.00 76 1013.0
20260510054911 63 106 0.0 0.0 0.00 0.00 0.00 76 1013.0
20260510054411 62 71 0.0 0.0 0.00 0.00 0.00 76 1013.0
20260510053911 62 56 0.0 0.0 0.00 0.00 0.00 76 1013.0
20260510053411 62 354 0.0 0.0 0.00 0.00 0.00 76 1013.0
20260510052911 62 354 0.0 0.0 0.00 0.00 0.00 76 1013.0
20260510052410 62 354 0.0 0.0 0.00 0.00 0.00 76 1012.8
20260510051910 62 338 0.0 0.0 0.00 0.00 0.00 76 1012.9
20260510051410 61 338 0.0 0.0 0.00 0.00 0.00 76 1012.8
20260510050910 61 338 0.0 0.0 0.00 0.00 0.00 76 1013.0
20260510050409 61 338 0.0 0.0 0.00 0.00 0.00 76 1013.2
20260510045909 61 338 0.0 0.0 0.00 0.00 0.00 76 1013.2
20260510045409 61 338 0.0 0.0 0.00 0.00 0.00 76 1013.2
20260510044909 61 306 0.0 0.0 0.00 0.00 0.00 76 1013.3
20260510044408 61 204 0.0 0.0 0.00 0.00 0.00 76 1013.5
20260510043908 61 204 0.0 0.0 0.00 0.00 0.00 76 1013.7
20260510043408 61 204 0.0 0.0 0.00 0.00 0.00 76 1013.6
20260510042908 61 204 0.0 0.0 0.00 0.00 0.00 76 1013.8
20260510042408 61 204 0.0 0.0 0.00 0.00 0.00 76 1013.7
20260510041907 61 204 0.0 0.0 0.00 0.00 0.00 76 1013.8
20260510041407 61 149 0.0 0.0 0.00 0.00 0.00 76 1013.6
20260510040907 61 175 0.0 0.0 0.00 0.00 0.00 76 1013.7
20260510040407 61 175 0.0 0.0 0.00 0.00 0.00 76 1013.6
20260510035906 61 175 0.0 0.0 0.00 0.00 0.00 76 1013.6
20260510035406 61 175 0.0 0.0 0.00 0.00 0.00 76 1013.7
20260510034906 61 176 0.0 0.0 0.00 0.00 0.00 76 1013.7
20260510034406 61 176 0.0 0.0 0.00 0.00 0.00 76 1013.8
20260510033906 61 176 0.0 0.0 0.00 0.00 0.00 76 1013.9
20260510033405 61 175 0.0 0.0 0.00 0.00 0.00 76 1013.8
20260510032905 61 175 0.0 0.0 0.00 0.00 0.00 76 1013.9
20260510032405 61 175 0.0 0.0 0.00 0.00 0.00 76 1013.9
20260510031905 61 176 0.0 0.0 0.00 0.00 0.00 76 1014.0
20260510031456 61 175 0.0 0.0 0.00 0.00 0.00 76 1014.0
20260510031404 61 175 0.0 0.0 0.00 0.00 0.00 76 1014.0
20260510030904 61 175 0.0 0.0 0.00 0.00 0.00 76 1014.1
20260510030404 61 183 0.0 0.0 0.00 0.00 0.00 76 1014.1
20260510025904 61 224 0.0 0.0 0.00 0.00 0.00 76 1014.0
20260510025403 61 224 0.0 0.0 0.00 0.00 0.00 76 1014.0
20260510024903 61 224 0.0 0.0 0.00 0.00 0.00 76 1014.1
20260510024403 61 224 0.0 0.0 0.00 0.00 0.00 76 1014.2
20260510023903 61 224 0.0 0.0 0.00 0.00 0.00 76 1014.1
20260510023402 61 224 0.0 0.0 0.00 0.00 0.00 76 1014.2
20260510022942 61 224 0.0 0.0 0.00 0.00 0.00 76 1014.1
20260510022902 61 224 0.0 0.0 0.00 0.00 0.00 76 1014.1
20260510022402 61 224 0.0 0.0 0.00 0.00 0.00 76 1014.2
20260510021955 61 224 0.0 0.0 0.00 0.00 0.00 76 1014.2
20260510021902 61 224 0.0 0.0 0.00 0.00 0.00 76 1014.2
20260510021402 61 224 0.0 0.0 0.00 0.00 0.00 76 1014.1
20260510020901 61 224 0.0 0.0 0.00 0.00 0.00 76 1014.0
20260510020401 61 224 0.0 0.0 0.00 0.00 0.00 76 1014.1
20260510015901 61 224 0.0 0.0 0.00 0.00 0.00 76 1014.2
20260510015401 61 224 0.0 0.0 0.00 0.00 0.00 76 1014.2
20260510014900 61 224 0.0 0.0 0.00 0.00 0.00 76 1014.1
20260510014454 61 226 0.0 0.0 0.00 0.00 0.00 76 1014.1
20260510014400 61 226 0.0 0.0 0.00 0.00 0.00 76 1014.1
20260510013900 61 226 0.0 0.0 0.00 0.00 0.00 76 1014.0
20260510013400 61 226 0.0 0.0 0.00 0.00 0.00 76 1014.0
20260510012859 61 226 0.0 0.0 0.00 0.00 0.00 76 1014.1
20260510012359 61 226 0.0 0.0 0.00 0.00 0.00 76 1014.1
20260510011859 61 214 0.0 0.0 0.00 0.00 0.00 75 1014.2
20260510011359 62 197 0.0 0.0 0.00 0.00 0.00 75 1014.2
20260510010859 62 197 0.0 0.0 0.00 0.00 0.00 75 1014.1
20260510010358 62 197 0.0 0.0 0.00 0.00 0.00 75 1014.3
20260510005858 62 197 0.0 0.0 0.00 0.00 0.00 75 1014.3
20260510005358 62 197 0.0 0.0 0.00 0.00 0.00 75 1014.4
20260510004858 62 197 0.0 0.0 0.00 0.00 0.00 75 1014.3
20260510004357 62 197 0.0 0.0 0.00 0.00 0.00 74 1014.4
20260510003857 62 197 0.0 0.0 0.00 0.00 0.00 74 1014.5
20260510003357 62 197 0.0 0.0 0.00 0.00 0.00 74 1014.6
20260510002857 62 197 0.0 0.0 0.00 0.00 0.00 74 1014.7
20260510002357 62 197 0.0 0.0 0.00 0.00 0.00 74 1014.8
20260510001856 62 197 0.0 0.0 0.00 0.00 0.00 73 1014.9
20260510001356 62 197 0.0 0.0 0.00 0.00 0.00 73 1014.9
20260510000856 62 197 0.0 0.0 0.00 0.00 0.00 73 1014.9
20260510000356 63 197 0.0 0.0 0.00 0.00 0.00 72 1014.9
20260509235855 63 197 0.0 0.0 0.00 0.00 0.00 72 1014.9
20260509235355 63 187 0.0 0.0 0.00 0.00 0.00 71 1015.0
20260509234855 64 96 0.0 0.0 0.00 0.00 0.00 71 1014.8
20260509234354 64 96 0.0 0.0 0.00 0.00 0.00 71 1014.7
20260509233854 64 96 0.0 0.0 0.00 0.00 0.00 71 1014.7
20260509233510 64 96 0.0 0.0 0.00 0.00 0.00 70 1014.7
20260509233354 64 96 0.0 0.0 0.00 0.00 0.00 70 1014.7
20260509232854 64 96 0.0 0.0 0.00 0.00 0.00 70 1014.8
20260509232354 65 96 0.0 0.0 0.00 0.00 0.00 70 1014.9
20260509231853 65 96 0.0 0.0 0.00 0.00 0.00 70 1014.9
20260509231353 65 96 0.0 0.0 0.00 0.00 0.00 70 1014.9
20260509230853 65 96 0.0 0.0 0.00 0.00 0.00 70 1015.0
20260509230353 65 96 0.0 0.0 0.00 0.00 0.00 70 1015.0
20260509225852 65 83 0.0 0.0 0.00 0.00 0.00 70 1014.9
20260509225351 65 87 0.0 0.0 0.00 0.00 0.00 69 1014.9
20260509224851 65 91 0.0 0.0 0.00 0.00 0.00 69 1014.9
20260509223851 65 91 0.0 0.0 0.00 0.00 0.00 69 1014.9
20260509223350 65 96 0.0 0.0 0.00 0.00 0.00 69 1014.9
20260509222850 65 59 0.0 0.0 0.00 0.00 0.00 69 1015.0
20260509222350 65 58 0.0 0.0 0.00 0.00 0.00 69 1015.0
20260509221850 65 66 0.0 0.0 0.00 0.00 0.00 69 1015.0
20260509221350 65 75 0.0 0.0 0.00 0.00 0.00 68 1015.0
20260509220849 65 76 0.0 0.0 0.00 0.00 0.00 68 1015.0
20260509220349 65 64 0.0 0.0 0.00 0.00 0.00 68 1014.9
20260509215849 66 83 0.0 0.0 0.00 0.00 0.00 67 1014.9
20260509215348 66 91 0.0 0.0 0.00 0.00 0.00 67 1014.9
20260509214848 66 91 0.0 0.0 0.00 0.00 0.00 66 1014.9
20260509214348 66 91 0.0 0.0 0.00 0.00 0.00 66 1014.9
20260509213848 66 91 0.0 0.0 0.00 0.00 0.00 65 1015.0
20260509213348 66 91 0.0 0.0 0.00 0.00 0.00 65 1015.0
20260509212847 66 91 0.0 0.0 0.00 0.00 0.00 65 1015.1
20260509212347 66 91 0.0 0.0 0.00 0.00 0.00 64 1015.1
20260509211847 66 91 0.0 0.0 0.00 0.00 0.00 64 1015.2
20260509211347 66 91 0.0 0.0 0.00 0.00 0.00 64 1015.2
20260509210847 66 91 0.0 0.0 0.00 0.00 0.00 64 1015.2
20260509210346 66 91 0.0 0.0 0.00 0.00 0.00 63 1015.2
20260509205846 66 91 0.0 0.0 0.00 0.00 0.00 63 1015.3
20260509205346 66 89 0.0 0.0 0.00 0.00 0.00 63 1015.3
20260509204846 66 91 0.0 0.0 0.00 0.00 0.00 63 1015.3
20260509204345 66 91 0.0 0.0 0.00 0.00 0.00 63 1015.4
20260509203845 66 85 0.0 0.0 0.00 0.00 0.00 62 1015.5
20260509203345 67 85 0.0 0.0 0.00 0.00 0.00 62 1015.5
20260509202845 67 80 0.0 0.0 0.00 0.00 0.00 61 1015.4